DW7955 Weather Reports


Display with metric or nautical units.
time (UTC)temp
F
wind
direction
speed
MPH
gust
MPH
rain 1hr
in
rain 24hr
in
rain mn
in
humidity
%
barometer
mb
20260506164525 33 50 7.0 13.0 0.07 0.38 0.19 93 1020.4
20260506163023 33 33 8.0 15.0 0.07 0.37 0.18 93 1019.8
20260506161521 33 29 8.0 14.0 0.05 0.35 0.16 93 1019.6
20260506160021 33 29 9.0 13.0 0.03 0.33 0.14 93 1019.7
20260506154520 32 15 6.0 11.0 0.01 0.31 0.12 94 1019.5
20260506153017 32 19 3.0 8.0 0.00 0.30 0.11 94 1019.2
20260506151523 32 7 4.0 7.0 0.00 0.30 0.11 94 1019.1
20260506150016 32 356 5.0 8.0 0.00 0.30 0.11 93 1019.3
20260506144513 32 356 4.0 7.0 0.00 0.30 0.11 93 1019.2
20260506143012 32 356 5.0 11.0 0.01 0.30 0.11 93 1018.9
20260506141511 32 5 3.0 10.0 0.01 0.30 0.11 93 1018.9
20260506140017 32 20 4.0 9.0 0.01 0.30 0.11 93 1019.0
20260506134506 32 6 6.0 12.0 0.01 0.30 0.11 93 1018.5
20260506133004 33 42 6.0 10.0 0.00 0.28 0.10 93 1018.3
20260506131506 33 356 5.0 11.0 0.00 0.28 0.10 93 1018.1
20260506124556 32 26 9.0 13.0 0.00 0.28 0.10 92 1017.5
20260506123054 33 16 8.0 14.0 0.00 0.28 0.10 92 1017.1
20260506121556 33 35 8.0 14.0 0.00 0.28 0.10 91 1016.7
20260506120052 33 30 8.0 15.0 0.00 0.28 0.10 91 1016.4
20260506114552 33 36 10.0 17.0 0.00 0.28 0.10 90 1016.4
20260506113043 33 23 13.0 21.0 0.00 0.28 0.10 90 1016.0
20260506111539 33 30 14.0 23.0 0.00 0.28 0.10 90 1015.6
20260506110037 34 28 11.0 23.0 0.00 0.28 0.10 90 1015.4
20260506104537 34 1 12.0 21.0 0.00 0.28 0.10 89 1015.3
20260506103033 35 356 12.0 18.0 0.00 0.28 0.10 88 1015.3
20260506101530 35 32 11.0 15.0 0.00 0.28 0.10 88 1015.2
20260506100027 35 55 9.0 17.0 0.00 0.28 0.10 89 1015.0
20260506094525 35 38 9.0 14.0 0.00 0.28 0.10 91 1014.9
20260506093022 35 17 5.0 11.0 0.01 0.28 0.10 93 1014.8
20260506091522 35 17 7.0 11.0 0.01 0.28 0.10 93 1014.8
20260506090019 35 43 6.0 11.0 0.02 0.28 0.10 93 1014.7
20260506084518 34 32 7.0 12.0 0.04 0.28 0.10 92 1014.6
20260506083018 34 40 5.0 11.0 0.05 0.28 0.09 92 1014.7
20260506081514 34 32 8.0 12.0 0.06 0.28 0.09 92 1014.4
20260506073004 37 66 2.0 5.0 0.04 0.23 0.04 93 1014.2
20260506071501 37 85 3.0 5.0 0.03 0.22 0.03 92 1014.1
20260506070104 37 47 3.0 7.0 0.02 0.21 0.02 92 1014.0
20260506061555 37 43 2.0 5.0 0.01 0.19 0.00 92 1013.6
20260506044547 37 55 5.0 10.0 0.00 0.18 0.18 89 1012.8
20260506043044 37 72 5.0 8.0 0.00 0.18 0.18 89 1012.7
20260506041543 37 55 8.0 10.0 0.00 0.18 0.18 88 1012.7
20260506040044 37 36 6.0 10.0 0.00 0.18 0.18 89 1012.6
20260506034541 37 34 3.0 7.0 0.00 0.18 0.18 89 1012.6
20260506033039 37 29 5.0 8.0 0.00 0.18 0.18 88 1012.4
20260506031538 37 40 5.0 8.0 0.00 0.18 0.18 88 1011.9
20260506030054 37 32 6.0 12.0 0.00 0.18 0.18 88 1011.4
20260506024539 37 30 7.0 10.0 0.00 0.18 0.18 88 1010.9
20260506023032 37 42 8.0 12.0 0.00 0.18 0.18 87 1010.3
20260506021531 37 38 8.0 10.0 0.00 0.18 0.18 87 1010.7
20260506020027 37 44 6.0 11.0 0.00 0.18 0.18 87 1010.0
20260506014523 37 40 6.0 14.0 0.00 0.18 0.18 87 1009.5
20260506013020 37 45 7.0 11.0 0.01 0.18 0.18 87 1008.9
20260506011528 38 21 6.0 11.0 0.02 0.18 0.18 86 1009.1
20260506010013 39 1 6.0 12.0 0.07 0.18 0.18 85 1008.3
20260506004524 39 92 11.0 18.0 0.14 0.18 0.18 84 1006.9
20260506003009 39 63 9.0 12.0 0.16 0.17 0.17 84 1007.6
20260506001509 39 82 6.0 12.0 0.16 0.16 0.16 83 1007.8
20260506000006 40 51 1.0 9.0 0.10 0.10 0.10 84 1007.3
20260505234602 40 83 7.0 11.0 0.04 0.04 0.04 81 1007.1
20260505233120 41 86 4.0 8.0 0.01 0.01 0.01 79 1007.3
20260505231554 42 84 7.0 13.0 0.00 0.00 0.00 76 1007.1
20260505230052 43 72 9.0 14.0 0.00 0.00 0.00 72 1006.7
20260505224550 43 91 8.0 11.0 0.00 0.00 0.00 70 1006.6
20260505223051 43 65 8.0 11.0 0.00 0.00 0.00 69 1006.7
20260505221548 43 97 7.0 17.0 0.00 0.00 0.00 69 1006.7
20260505220047 43 71 7.0 13.0 0.00 0.00 0.00 69 1006.6
20260505214547 43 90 8.0 15.0 0.00 0.00 0.00 69 1006.9
20260505213048 43 72 6.0 13.0 0.00 0.00 0.00 70 1006.8
20260505211546 44 54 6.0 11.0 0.00 0.00 0.00 70 1006.6
20260505210045 44 75 7.0 14.0 0.00 0.00 0.00 70 1006.5
20260505204544 44 86 5.0 15.0 0.00 0.00 0.00 69 1006.7
20260505203049 44 47 9.0 16.0 0.00 0.00 0.00 68 1006.5
20260505201546 44 78 11.0 16.0 0.00 0.00 0.00 68 1006.3
20260505200042 44 77 10.0 18.0 0.00 0.00 0.00 69 1006.3
20260505194548 45 53 11.0 16.0 0.00 0.00 0.00 69 1006.3
20260505193101 44 84 11.0 18.0 0.00 0.00 0.00 70 1006.6
20260505191542 44 68 11.0 18.0 0.00 0.00 0.00 71 1006.5
20260505190043 44 53 9.0 18.0 0.00 0.00 0.00 72 1006.6
20260505184540 44 60 10.0 17.0 0.00 0.00 0.00 72 1006.6
20260505183040 44 65 9.0 15.0 0.00 0.00 0.00 72 1006.6
20260505181540 45 86 11.0 15.0 0.00 0.00 0.00 71 1006.7
20260505180043 45 32 8.0 18.0 0.00 0.00 0.00 71 1006.7
20260505174539 44 101 6.0 18.0 0.00 0.00 0.00 69 1007.0
20260505173037 44 84 13.0 18.0 0.00 0.00 0.00 72 1006.8
20260505171541 44 60 8.0 15.0 0.00 0.00 0.00 75 1006.6
20260505170038 44 53 10.0 15.0 0.00 0.00 0.00 76 1006.7